Погода в Максатихе

Погода в Максатихе : погода сейчас, прогноз погоды и архив. Всё, что Вы хотите узнать о погоде в Максатихе!

Поиск расширенной информации на нашем сайте:

Другие новости

Новости СМИ2

Главная страница сайта

Новости сайта

02.10.2013

Напоминаем, что на нашем новом сайте вы можете получить высокодетализированные прогнозы погоды по пунктам России, СНГ и мира (включающие важные для авиации метеовеличины, такие как направление и скорость ветра, видимость, явления погоды, количество и форма облачности, нижняя и верхняя граница облачности), а также ознакомиться с разнообразными материалами по авиационной метеорологии и подборкой полезных ссылок на эту тему.

Сайт Метеоцентр.Азия посвящён разработке технологий оптимизации авиаметеорологического обслуживания, включая проектирование и перспективное создание нескольких автоматизированных авиаметеорологических систем:
- система выпуска высокодетальных прогностических карт явлений погоды для нижнего воздушного пространства по России и ближнему зарубежью;
- система верификации прогнозов TAF (выпускаемых синоптиками официальных АМСГ РФ и ближнего зарубежья) и AUTOTAF (выпускаемых сайтом Метеоцентр.Азия) - выявление ошибок, онлайн-сопоставление с фактической погодой METAR, автоматическое внесение коррективов в прогнозы при резком отклонении фактической погоды от прогноза, подсчёт оправдываемости прогнозов по элементам и в целом;
- система обработки, анализа и отображения авиаметеорологической информации для применения провайдерами метеорологической информации.

Рекомендуем: Стирка пуховика и подушек в стиральной машине moyatehnika.ru.

Погода в Максатихе - сегодня

Время (UTC), дата Ветер
(°,м/с) 
Видим.   Явления Облачность Т
(°С)
Тd
(°С)
f(%) Тe
(°С)
Pmin
(гПа)
dP
(гПа)
Po
(мм)
O2
(г/м3)
Тmin Tmax R s Состояние
почвы
03 26.04.17 160 (Ю) 5{12}  10 км  в посл. час ливневой дождь  9/0 средняя 
[Ac cuf]
+5.1 +1.3 76 +3  1006.9  -3.4  742  293  +4.5    0.5     
06 26.04.17 170 (Ю) 6-11{12}  10 км  {ливн. осадки}  9/0 средняя 
[Ac cuf]
+6 +1.8 74 +4  1005.4  -1.5  741  292  +4.3      влажная 
09 26.04.17 200 (Ю) 2{13}  4000 м  слаб. дождь  10/10 300 м 
[Frnb|Ns]
+6.1 +4.8 91 +6  1006  0.6  741  291           
12 26.04.17 230 (ЮЗ) 2{13}  4000 м  слаб. дождь  10/10 300 м 
[Frnb|Ns]
+4.8 +3.7 93 +4  1007.9  1.8  743  294           
15 26.04.17 220 (ЮЗ) 10 км  {дождь}  9/6 200 м средняя 
[St|Ac trans]
+5.5 +3.8 89 +5  1007.9  743  293         
18 26.04.17 220 (ЮЗ) 10 км  {дождь}  9/0 средняя 
[As trans]
+4.4 +1.9 84 +3  1009.4  1.4  744  295    +7.1     
21 26.04.17 210 (ЮЗ) 10 км    9/0 средняя 
[As trans]
+3.3 +1.6 89 +3  1010.9  1.5  745  296           
00 27.04.17 220 (ЮЗ) 4000 м  дымка  3/0 верхняя 
[Ci fib]
+2.3 +1.3 93 +2  1011.7  0.7  746  298           
03 27.04.17 200 (Ю) 4000 м  дымка  9/0 средняя, верхняя 
[Ac trans|Ci]
+1.4 +1.1 98 +2  1012.7  0.9  746  299  +0.4         
06 27.04.17 230 (ЮЗ) 10 км    9/8 600 м средняя 
[Sc|Ac trans]
+5.6 +2 78 +5  1013.9  1.5  747  295  +0.4        влажная 
09 27.04.17 200 (Ю) 10 км    9/9 600 м 
[Sc]
+7.7 -0.2 57 +6  1013.4  -0.4  747  293           
12 27.04.17 210 (ЮЗ) 10 км    9/8 600 м средняя 
[Sc|Ac trans]
+6.4 +2.3 75 +5  1014  0.5  747  294           
15 27.04.17 200 (Ю) 10 км    9/9 600 м 
[Sc]
+6.6 +1.9 72 +6  1014.4  0.4  748  294           
18 27.04.17 220 (ЮЗ) 10 км    9/0 средняя 
[Ac As]
+4.5 +2 84 +5  1016.3  1.7  749  297    +8       
21 27.04.17 220 (ЮЗ) 4000 м  дымка  9/9 1000 м 
[Sc]
+2.9 +2.1 94 +4  1016.9  0.5  749  298           
00 28.04.17 170 (Ю) 4000 м  дымка  4/0 средняя 
[Ac trans]
+0.4 +0.1 98 +1  1018.4  1.2  750  302           
03 28.04.17 200 (Ю) 4000 м  дымка  9/8 1000 м средняя 
[Sc|Ac trans]
+0.2 +0.1 99 +1  1020.3  1.8  752  303  -0.7         
06 28.04.17 170 (Ю) 10 км    3/0 верхняя 
[Cs]
+5.7 +3 83 +5  1021.3  1.4  753  297  -0.7        влажная 
09 28.04.17 250 (З) 10 км    9/6 600 м средняя, верхняя 
[Cu Sc|Ac trans|Ci fib]
+10.5 -3.5 37 +12  1021.8  0.8  753  293           
12 28.04.17 220 (ЮЗ) 10 км    9/6 600 м средняя, верхняя 
[Cu med, cong|Ac trans|Cs]
+11.2 -2.9 37 +11  1022.1  0.3  754  292           
15 28.04.17 070 (В) 10 км    9/3 1000 м средняя 
[Sc diur, vesp|Ac trans]
+11.1 -2 40 +11  1022.1  0.1  754  292           
18 28.04.17 060 (СВ) 10 км    9/3 600 м средняя 
[Sc|Ac trans]
+8.8 -1.5 48 +10  1022.5  0.2  754  294    +11.6       
21 28.04.17 120 (ЮВ) 10 км  слаб. ливневой дождь  9/9 600 м кучево-дожд. 
[Cb cap]
+7.2 +0.7 63 +6  1022.8  0.2  754  296           
00 29.04.17 080 (В) 4{10}  4000 м  слаб. дождь{ливн. осадки}  10/10 600 м 
[Ns]
+4.4 +2.4 87 +3  1022.3  -0.6  753  298           
03 29.04.17 070 (В) 4{11}  10 км  в посл. час дождь  9/8 200 м средняя 
[St|Ac trans]
+4.4 +2.5 87 +3  1019.8  -2.4  752  298  +4       
Время (UTC), дата Ветер
(°,м/с) 
Видим.   Явления Облачность Т
(°С)
Тd
(°С)
f(%) Тe
(°С)
Pmin
(гПа)
dP
(гПа)
Po
(мм)
O2
(г/м3)
Тmin Tmax R s Состояние
почвы

Для получения пояснительной информации подведите курсор к названию столбца.

ПОГОДА в Максатихе - архив

Всё, что Вы хотите узнать о погоде в Максатихе - удобно и подробно!

Выберите нужную дату (начиная с 1 января 2015* года) и нажмите кнопку "Найти".
Будут отображены архивные сводки погоды по пункту Максатиха, начиная с указанной даты.


Отображать данные в формате CSV (для использования в таблицах Excel)


Внимание! Наш архив погоды предназначен исключительно для личного некоммерческого использования в познавательных целях. Если Вам необходимы официальные справки о состоянии погоды (для производственных, юридических, коммерческих и т.п. целей), обращайтесь в органы Росгидромета.

*Примечание: данная дата относится к архиву по метеостанциям СССР (Россия, СНГ, Балтия).
Архив по метеостанциям Зарубежной Европы и Азии (кроме Китая) хранится 10 дней, по другим регионам земного шара (Китай, Африка, Америка, Австралия, Океания) - 1 день.

Максатиха - район местоположения метеостанции


Название, широта, долгота, высота метеостанции:
Максатиха 57.8°ш. 35.9°д. 140 м над ур. моря [Российская Федерация]

Дополнительная информация

В oтличие oт бoльшинства пoгoдных сайтoв мы публикуем пoдрoбную метеoинфoрмацию в детальнoм прoфессиoнальнoм фoрмате.

Характеристики температуры и влажнoсти вoздуха измеряются на высoте 2 м в тени вдали oт зданий и деревьев.
Скoрoсть ветра измеряется на высoте 10 м (на урoвне рoста челoвека скoрoсть ветра ниже в 1.5-2 раза). Если метеoстанция нахoдится в гoрoде или в лесу, тo скoрoсть ветра занижена на 2-4 м/с пo сравнению с oткрытым местoм. Скoрoсть ветра над акватoриями крупных рек и oзёр, а также на вершинах хoлмoв на 2-5 м/с выше, чем в oбычных услoвиях.
Атмoсфернoе давление в разных тoчках местнoсти мoжет значительнo oтличаться oт давления на метеoстанции, в зависимoсти oт услoвий рельефа (при пoдъёме на 10 м давление пoнижается примернo на 1 мм рт.ст.).